User: anonymous   Login
Location: Godiavel Galaoual
(15.2485°N, 12.6604°W)
Time: 05:40:49
(UTC+00:00)
Language:

HuskySat-1 - Orbit

View from above orbital plane
View from above orbital plane
View from above satellite
View from above satellite

Ground track
Ground track

The orbit data is extracted from the following two-line orbital elements,

1 45117U 19071G   21209.75841755  .00005164  00000-0  15186-3 0  9992
2 45117  51.6402 195.3794 0010517  82.3854 277.8323 15.36790073 83532
Epoch (UTC): 28 July 2021 18:12:07
Eccentricity: 0.0010517
inclination: 51.6402°
perigee height: 448 km
apogee height: 463 km
right ascension of ascending node: 195.3794°
argument of perigee: 82.3854°
revolutions per day: 15.36790073
mean anomaly at epoch: 277.8323°
orbit number at epoch: 8353

The dashed part of the orbit path shows where the satellite is in the earth's shadow,  

DLR